Regional Weather Roundup
Issued by NWS Huntsville, AL

Home | Current Version | Previous Version | Text Only | Print | Product List | Glossary On
Versions: 1 2 3 4 5 6 7 8 9 10 11 12 13 14 15 16 17 18 19 20 21 22 23 24 25 26 27
000
ASUS44 KHUN 241310
RWRHUN

WEATHER ROUNDUP FOR THE TENNESSEE VALLEY
NATIONAL WEATHER SERVICE HUNTSVILLE AL
800 AM CDT TUE MAY 24 2016

ALZ001>004-241400-
NORTHWEST ALABAMA

CITY           SKY/WX    TMP DP  RH WIND       PRES   REMARKS
COURTLAND HCN    N/A     61 N/A N/A CALM        N/A
RUSSELLVILLE     N/A     57 N/A N/A MISG        N/A
SHOALS AIRPORT PTSUNNY   67  58  72 SE3       30.12R
$$

ALZ005>007-016-241400-
NORTH CENTRAL ALABAMA

CITY           SKY/WX    TMP DP  RH WIND       PRES   REMARKS
CULLMAN AG STN   N/A     63 N/A N/A CALM        N/A
DECATUR AP       N/A     65  59  81 CALM      30.13R
HUNTSVILLE AP  PTSUNNY   68  56  65 E3        30.13R
HUN NWS/UAH      N/A     70  53  54 S3          N/A
MERIDIANVILLE  SUNNY     68  48  49 SE6       30.13R
VINEMONT AP    FAIR      66  60  82 CALM      30.14R
$$

ALZ008>010-241400-
NORTHEAST ALABAMA

CITY           SKY/WX    TMP DP  RH WIND       PRES   REMARKS
ALBERTVILLE    SUNNY     66  61  82 SE3       30.14R
FORT PAYNE     SUNNY     64  52  63 CALM      30.15R
SCOTTSBORO AP  SUNNY     63  54  72 N3        30.15R
SCOTTSBORO HCN   N/A     59 N/A N/A MISG        N/A
VALLEY HEAD      N/A     63 N/A N/A MISG        N/A
$$

TNZ076-096-097-241400-
SOUTHEASTERN MIDDLE TENNESSEE

CITY           SKY/WX    TMP DP  RH WIND       PRES   REMARKS
TULLAHOMA      SUNNY     66  54  63 CALM      30.14R
WINCHESTER     SUNNY     70  52  52 SE6       30.13R
$$

...SURROUNDING SITES...

CITY           SKY/WX    TMP DP  RH WIND       PRES   REMARKS
ATLANTA        PTSUNNY   65  53  65 VRB7      30.15R
ANNISTON       SUNNY     64  57  78 NE5       30.14R
BIRMINGHAM     CLOUDY    71  58  63 CALM      30.15R
CHATTANOOGA    MOSUNNY   65  54  67 CALM      30.16R
DALTON         SUNNY     61  55  82 CALM      30.16R
GADSDEN        SUNNY     66  59  78 CALM      30.15R
GOLDEN TRNGL   SUNNY     70  57  64 S7        30.10R
HALEYVILLE     FAIR      65  59  81 CALM      30.14R
JACKSON TN     CLOUDY    67  61  81 CALM      30.08R
MEMPHIS        CLOUDY    72  57  59 S7        30.06R
NASHVILLE      MOSUNNY   64  54  69 CALM      30.13R
OXFORD MS      FAIR      70  55  60 S7G16     30.10R
ROME           SUNNY     62  55  77 CALM      30.15R
SAVANNAH       SUNNY     64  57  77 VRB3      30.09R
TUPELO         SUNNY     69  58  67 SE5       30.09R
TUSCALOOSA     MOSUNNY   66  61  84 CALM      30.12R
$$

...GULF COAST WEATHER...

CITY           SKY/WX    TMP DP  RH WIND       PRES   REMARKS
GULFPORT       SUNNY     72  64  76 CALM      30.07R
PASCAGOULA     SUNNY     70  65  84 CALM      30.08R
MOBILE         MOSUNNY   70  64  81 N5        30.10R
GULF SHORES    SUNNY     72  67  87 SW5       30.09R
DESTIN         SUNNY     76  64  66 N6        30.10R
APPALACHICOLA  SUNNY     73  63  70 N7        30.09R
$$





USA.gov is the U.S. government's official web portal to all federal, state and local government web resources and services.